Location: Unspecified
(0.0000°N, 0.0000°E)
Time: 06:55:29
(UTC+02:00)

Cosmos 2237 Rocket - Visible Passes

Search period start: 18 April 2015 00:00
Search period end: 28 April 2015 00:00
Orbit: 833 x 851 km, 71.0° (Epoch: 17 April)

Date Brightness Start Highest point End Pass type
(mag) Time Alt. Az. Time Alt. Az. Time Alt. Az.
18 Apr 4.6 06:24:15 10° SSE 06:28:20 21° ESE 06:32:38 10° ENE visible
19 Apr 4.6 06:09:38 10° SSE 06:13:32 20° ESE 06:17:41 10° ENE visible
20 Apr 4.6 05:55:03 10° SSE 05:58:44 19° ESE 06:02:43 10° ENE visible
21 Apr 4.7 05:40:28 10° SE 05:43:56 17° ESE 05:47:44 10° ENE visible
21 Apr 2.9 07:22:55 10° SW 07:27:56 32° WNW 07:32:51 10° NNW visible
22 Apr 4.7 05:25:58 10° SE 05:29:09 16° ESE 05:32:44 10° ENE visible
22 Apr 2.8 07:08:02 10° SW 07:13:08 34° WNW 07:18:10 10° N visible
23 Apr 4.7 05:13:05 14° ESE 05:14:21 15° ESE 05:17:41 10° ENE visible
23 Apr 2.7 06:55:01 20° SW 06:58:21 36° WNW 07:03:28 10° N visible
24 Apr 4.8 05:00:00 14° ESE 05:00:00 14° ESE 05:02:38 10° ENE visible
24 Apr 2.7 06:41:56 32° WSW 06:43:34 39° WNW 06:48:46 10° N visible
25 Apr 5.0 04:46:46 11° E 04:46:46 11° E 04:47:30 10° ENE visible
25 Apr 2.5 06:28:40 41° WNW 06:28:46 41° WNW 06:34:03 10° N visible
26 Apr 2.9 06:15:17 38° NW 06:15:17 38° NW 06:19:20 10° N visible
27 Apr 3.4 06:01:45 28° NNW 06:01:45 28° NNW 06:04:36 10° N visible
